Location: Brookview Estates
(36.0476°N, 86.6931°W)
Time: 11:25:20
(UTC+00:00)

Cosmos 1674 Rocket - Pass Details

Date: 30 March 2020
Orbit: 603 x 630 km, 82.5° (Epoch: 27 May)

Event Time Altitude Azimuth Distance (km) Brightness Sun altitude
Rises 10:30:51 0° 174° (S) 2,901 6.9 -13.6°
Reaches altitude 10° 10:33:07 10° 170° (S) 1,996 6.1 -13.2°
Maximum altitude 10:37:25 53° 93° (E) 773 4.5 -12.3°
Drops below altitude 10° 10:41:44 10° 17° (NNE) 1,998 6.6 -11.5°
Sets 10:44:00 0° 13° (NNE) 2,904 7.4 -11.0°
